Temperature
16 15 15 15 15 15 15 15 15 15 15 16 16 16 16 15 15 15 15 15 15 15 15 16 16 16 16 16 16 15 15 15 15 15 15 15 15 15
15 15 15 15 15 15 15 15 15 15 15 15 15 16 15 15 15 15 15 15 15 15 15 15 15 15 15 15 15 15 15 15 15 15 15 15 15 14
15 15 15 14 14 14 14 14 14 14 14 15 15 15 15 15 15 15 15 15 15 15 15 15 15 15 15 15 15 15 15 15 15 15 15 15 14 14
15 15 15 15 14 14 14 14 14 14 14 14 14 14 15 15 15 15 14 14 15 15 15 15 15 15 15 15 15 15 15 15 15 15 14 14 14 14
15 15 15 14 14 14 14 14 14 14 14 14 14 14 14 14 14 14 14 14 14 14 14 15 15 15 15 15 15 15 15 15 15 15 14 14 14 14
15 15 15 14 14 14 14 14 14 14 14 14 14 14 14 14 14 14 14 14 14 14 14 14 14 14 15 15 15 15 15 15 14 14 14 14 14 14
15 15 15 15 14 14 14 14 14 14 14 14 13 13 13 14 14 14 13 13 13 13 13 13 14 14 14 14 14 15 14 14 14 14 14 14 14 14
15 15 15 15 15 14 14 14 14 14 14 13 13 13 13 13 13 13 13 13 13 13 13 13 13 13 14 14 14 14 14 14 14 14 14 14 14 14
15 15 15 14 14 14 14 14 14 14 14 14 13 13 13 13 13 13 13 13 12 13 12 13 13 13 13 13 13 14 14 14 14 14 14 14 14 13
14 14 14 14 14 14 14 14 14 14 14 14 13 13 13 13 13 13 13 12 12 12 12 12 13 13 13 13 13 13 13 13 13 13 13 13 13 13
14 14 14 14 14 14 14 14 14 14 14 13 13 13 13 13 13 13 12 12 12 12 12 12 12 13 13 13 13 13 13 13 13 13 13 13 13 13
13 14 14 14 14 14 14 14 14 13 13 13 13 13 13 13 13 12 12 12 12 12 12 12 12 12 12 12 12 12 12 12 12 12 12 12 12 12
13 13 13 13 14 14 14 14 13 13 13 13 13 13 13 12 12 12 12 12 12 12 12 11 11 11 11 11 12 12 12 12 12 12 12 12 12 12
12 13 13 13 13 13 13 13 13 13 13 13 13 12 12 12 12 12 12 12 11 11 11 11 11 11 11 11 11 11 11 11 11 11 11 11 11 11
12 12 12 12 12 13 13 13 13 12 12 12 12 12 12 12 11 11 11 11 11 11 11 11 11 11 11 11 11 11 11 11 11 11 11 11 11 11
11 11 11 12 12 12 12 12 12 12 11 11 11 11 11 11 11 11 11 11 11 11 11 10 10 10 10 10 10 10 10 10 10 10 10 10 10 10
11 11 11 11 11 11 11 11 11 11 11 11 11 10 10 10 10 10 10 10 10 10 10 10 10 10 10 10 10 10 10 10 10 10 10 10 10 9
10 10 10 10 10 10 10 10 10 10 10 10 10 10 10 10 10 10 10 10 9 9 9 9 9 10 10 10 9 9 9 9 9 9 9 9 9 9
10 10 9 9 9 9 9 9 9 9 9 9 9 9 9 9 9 9 9 9 9 9 9 9 9 9 9 9 9 8 8 8 8 8 8 8 8 8
9 9 9 9 9 9 9 9 8 9 9 9 9 9 8 8 8 8 8 8 8 8 8 8 8 8 8 8 8 8 7 8 8 8 8 8 7 7
9 9 9 9 9 9 8 8 8 8 8 8 8 8 8 8 8 8 8 8 8 8 7 7 7 7 7 7 7 7 7 7 7 7 7 7 7 6
8 8 8 8 8 8 8 8 8 7 7 7 7 7 7 7 7 7 7 7 7 7 7 7 7 7 7 7 7 7 6 6 6 6 6 6 5 5
8 8 8 8 8 8 8 8 7 7 7 7 6 6 6 6 6 6 6 6 7 7 6 6 7 7 6 6 6 6 6 6 6 5 5 5 5 5
Wind_Speed
2 3 3 3 3 3 3 4 4 3 4 5 3 3 4 7 14 18 15 19 19 17 14 12 9 7 5 4 3 2 1 1 1 2 3 4 5 5
2 2 2 2 2 2 3 3 4 4 3 3 3 2 1 2 11 13 13 20 22 20 17 15 12 10 8 7 6 4 3 2 1 1 2 3 4 5
2 3 2 2 2 2 2 3 3 4 4 3 3 2 2 2 3 6 6 12 16 20 19 17 15 13 11 10 9 7 6 5 4 3 2 3 3 4
2 2 2 2 2 2 2 3 3 4 4 4 3 3 3 2 2 3 3 8 10 18 21 19 17 15 14 13 12 11 10 8 7 6 5 4 4 4
2 2 2 2 2 2 3 3 2 3 3 3 3 2 1 1 1 3 3 3 6 12 19 19 18 17 16 16 15 14 13 12 11 9 8 6 5 5
1 1 2 3 2 1 0 1 1 2 2 2 2 1 1 0 1 2 3 3 3 3 8 12 16 18 18 18 18 17 17 16 14 13 11 10 8 7
0 2 5 6 5 3 2 2 2 0 0 1 1 0 1 1 2 2 2 2 2 1 2 4 6 8 12 17 19 19 20 19 18 16 14 13 11 10
1 1 5 6 6 4 4 3 2 2 2 1 0 0 1 2 2 2 2 1 2 1 1 3 3 4 6 9 14 19 21 21 20 18 17 15 14 13
4 1 1 4 4 4 5 4 3 2 1 1 1 0 0 2 2 2 2 2 2 1 1 2 2 3 3 6 9 14 18 19 19 19 18 17 16 14
4 2 1 3 3 4 1 1 4 4 3 1 2 2 2 1 2 2 2 1 0 0 1 1 1 2 3 5 7 8 11 14 15 16 16 16 16 15
3 4 5 6 7 6 4 3 2 2 3 4 4 3 2 2 2 2 1 0 1 1 1 1 1 2 2 2 4 5 6 8 10 12 13 14 14 13
3 5 8 7 6 7 5 4 4 3 2 2 1 0 1 2 2 1 0 0 1 1 1 1 1 1 3 2 1 1 3 5 8 10 11 12 11 9
3 3 4 6 6 6 5 5 3 4 4 3 3 3 3 2 1 1 0 1 0 1 1 2 1 1 1 3 2 1 1 1 2 4 8 10 11 10
4 4 4 6 6 6 5 5 6 5 3 4 4 4 4 3 3 2 3 2 2 1 1 2 0 0 1 2 3 3 2 2 1 1 2 4 8 11
5 6 6 6 5 4 5 6 5 4 4 4 4 3 2 3 3 3 3 4 4 3 3 2 1 0 0 1 3 3 3 3 1 2 1 1 2 3
4 5 6 7 6 6 5 5 5 5 4 4 3 3 2 3 4 3 3 3 3 3 3 4 2 1 1 2 2 3 3 3 3 3 2 2 2 3
5 5 5 6 6 6 6 6 6 6 6 5 4 4 4 4 3 3 3 3 3 3 4 3 4 3 2 1 2 2 3 3 3 3 3 3 3 3
8 7 7 6 6 6 6 6 6 6 6 5 5 5 4 4 4 4 4 4 3 3 3 3 4 4 3 4 4 3 4 4 4 4 3 3 4 4
9 7 7 7 6 6 6 6 6 6 6 6 6 6 5 5 4 4 4 4 4 4 4 4 4 4 4 4 4 6 4 4 4 4 3 3 3 3
7 7 7 7 7 7 6 6 6 6 6 6 6 6 5 5 4 4 4 5 4 4 4 4 4 4 2 2 2 3 5 4 4 4 4 4 3 2
6 6 6 6 6 6 6 5 5 6 6 6 5 6 5 4 4 4 4 5 4 4 4 4 3 3 2 2 3 3 3 7 6 3 4 4 4 4
5 5 5 6 5 5 5 5 5 5 6 5 5 5 5 5 5 5 4 4 4 4 4 3 4 4 4 4 4 4 5 5 7 10 8 5 2 3
4 4 4 4 5 4 4 5 6 5 5 5 5 5 5 4 4 4 5 5 4 5 4 4 4 4 4 4 4 5 7 6 5 4 4 6 4 2
Wind_Direction
234 234 218 223 218 215 210 195 196 220 238 233 233 229 209 194 181 186 185 195 197 200 202 204 206 209 212 213 208 205 220 354 17 21 20 17 12 7
194 249 238 225 220 217 213 213 201 204 235 237 222 230 205 179 180 194 203 198 198 198 201 203 205 208 212 212 212 216 223 244 277 322 352 357 357 356
200 217 228 213 197 213 214 216 213 201 226 252 237 231 219 188 180 228 211 182 195 200 201 203 205 208 212 216 222 226 230 237 248 264 286 309 324 333
216 209 214 200 206 214 216 222 219 209 212 245 252 229 228 216 203 231 214 196 195 204 204 205 208 211 215 220 225 229 233 237 243 250 261 275 289 299
204 209 200 176 207 207 212 217 223 227 211 224 247 231 218 223 224 244 245 244 217 201 203 208 212 215 219 224 228 231 234 237 241 244 249 258 268 278
209 195 122 106 75 44 185 212 210 218 211 212 227 224 208 228 196 237 258 252 247 201 198 207 215 221 225 228 231 233 234 236 238 240 243 247 251 259
314 90 95 99 93 75 64 35 26 38 162 184 213 182 198 206 220 212 237 256 266 226 202 210 208 216 225 233 236 236 235 236 237 238 240 243 245 248
315 144 147 147 143 143 138 119 79 56 47 45 78 220 231 209 198 197 203 204 266 264 196 239 207 223 228 227 233 234 234 234 235 237 238 240 242 244
324 322 124 125 153 171 183 189 184 174 144 52 40 16 227 194 173 196 210 208 225 225 141 269 266 256 266 265 255 235 232 233 235 236 237 238 240 242
313 338 41 91 66 47 62 201 174 175 188 179 68 70 73 105 152 175 192 194 196 11 140 244 268 267 280 293 284 249 235 235 237 238 238 239 240 242
344 31 53 73 60 38 9 12 61 110 140 119 95 104 110 98 98 94 102 141 277 248 177 223 281 290 293 290 289 258 246 247 249 247 245 242 242 244
30 64 63 71 58 36 15 26 41 13 35 115 112 124 211 197 181 183 187 204 301 301 175 183 313 342 325 318 327 243 248 261 262 261 257 251 243 234
42 59 56 62 58 44 39 47 41 353 356 43 59 51 48 70 109 281 45 140 193 274 185 160 300 352 324 320 318 296 257 285 260 267 257 251 240 225
48 51 56 59 60 53 55 46 20 4 18 48 54 48 41 30 17 12 21 34 52 86 126 124 109 43 342 323 313 328 330 308 288 284 274 247 242 238
57 60 62 61 60 65 51 34 25 30 43 55 57 52 39 30 28 18 15 25 30 44 61 83 98 39 326 296 311 328 330 321 317 323 326 245 228 227
61 66 59 51 52 55 49 39 44 43 48 52 54 51 39 39 35 27 18 12 25 11 23 41 34 357 300 291 307 319 330 334 345 344 342 330 316 275
38 49 46 43 43 41 40 38 38 36 37 33 39 43 37 36 30 22 19 20 30 16 5 358 358 345 299 301 351 357 0 356 346 346 353 339 327 337
53 52 47 45 45 42 39 36 35 31 29 30 32 34 34 34 32 23 23 30 30 22 15 3 3 360 1 27 38 23 15 5 353 356 7 352 338 2
53 49 45 40 39 40 38 37 34 28 27 34 34 31 27 25 29 28 23 23 20 18 18 21 25 25 24 6 359 30 20 2 360 2 4 359 335 351
48 45 40 36 36 35 29 29 32 29 29 32 32 27 24 23 26 27 28 21 13 16 22 27 31 26 18 327 317 356 30 26 15 5 352 344 342 58
50 47 39 37 35 32 26 24 33 32 28 29 29 24 19 20 20 16 16 17 19 21 21 9 344 313 299 357 13 5 11 39 51 43 2 357 352 2
49 53 47 42 36 30 25 24 33 39 30 25 19 14 11 15 13 9 10 14 17 22 15 355 356 11 26 35 31 21 20 31 56 64 58 54 24 4
46 51 54 46 38 33 27 26 31 35 31 20 12 8 8 6 2 6 9 19 23 19 11 4 5 22 30 36 49 41 30 20 14 26 23 19 22 355
Height
1524 1525 1526 1527 1528 1529 1530 1532 1533 1533 1533 1534 1536 1537 1537 1538 1539 1540 1541 1542 1543 1544 1544 1545 1546 1546 1547 1547 1547 1547 1546 1546 1546 1546 1545 1545 1545 1544
1522 1523 1523 1524 1524 1525 1526 1528 1529 1530 1530 1530 1532 1533 1534 1534 1535 1537 1538 1539 1540 1541 1542 1543 1543 1544 1544 1545 1545 1545 1544 1544 1544 1543 1543 1543 1542 1542
1520 1520 1521 1521 1521 1522 1523 1524 1525 1526 1526 1527 1528 1529 1529 1530 1531 1532 1534 1535 1536 1537 1538 1540 1540 1541 1542 1542 1543 1543 1542 1542 1542 1541 1541 1540 1540 1540
1518 1519 1519 1519 1519 1520 1520 1521 1521 1522 1523 1523 1524 1525 1525 1526 1527 1528 1530 1530 1532 1533 1535 1536 1537 1538 1539 1540 1540 1540 1540 1540 1540 1539 1539 1538 1538 1537
1517 1518 1518 1518 1518 1518 1518 1518 1518 1519 1519 1520 1520 1521 1521 1522 1523 1524 1525 1526 1528 1529 1530 1532 1533 1534 1535 1536 1537 1537 1537 1537 1537 1537 1537 1536 1536 1535
1517 1517 1517 1517 1517 1517 1517 1517 1517 1517 1517 1517 1517 1518 1518 1519 1519 1520 1521 1522 1523 1525 1525 1527 1529 1530 1531 1532 1533 1534 1534 1534 1534 1534 1534 1534 1533 1533
1516 1516 1516 1516 1516 1516 1516 1516 1516 1516 1515 1515 1516 1516 1516 1516 1516 1516 1517 1518 1519 1520 1521 1522 1524 1525 1526 1528 1529 1529 1530 1531 1531 1531 1531 1531 1530 1530
1515 1515 1515 1515 1515 1515 1515 1515 1515 1515 1515 1515 1514 1514 1514 1514 1514 1514 1514 1515 1515 1517 1517 1518 1519 1520 1522 1523 1524 1525 1526 1526 1527 1527 1527 1527 1527 1526
1513 1514 1514 1515 1515 1515 1515 1515 1515 1515 1515 1515 1514 1514 1514 1513 1513 1513 1513 1513 1513 1514 1514 1514 1516 1516 1517 1518 1519 1520 1521 1522 1522 1522 1522 1523 1523 1522
1512 1512 1513 1513 1514 1514 1515 1515 1515 1515 1515 1515 1514 1514 1514 1513 1512 1512 1512 1512 1512 1512 1512 1512 1512 1513 1514 1514 1515 1515 1516 1516 1517 1517 1518 1518 1518 1518
1509 1510 1511 1511 1513 1513 1514 1514 1514 1515 1515 1515 1514 1514 1513 1513 1513 1512 1512 1511 1511 1511 1511 1511 1511 1511 1511 1511 1511 1511 1512 1512 1512 1512 1513 1513 1513 1513
1508 1508 1509 1510 1511 1512 1512 1513 1513 1514 1514 1514 1514 1513 1513 1513 1512 1512 1512 1511 1511 1511 1511 1511 1510 1509 1509 1509 1509 1509 1509 1509 1509 1508 1508 1508 1508 1508
1506 1507 1508 1509 1509 1510 1511 1512 1512 1513 1513 1513 1513 1513 1513 1512 1512 1512 1512 1511 1511 1511 1511 1510 1510 1509 1509 1509 1508 1508 1507 1506 1506 1506 1505 1505 1504 1504
1506 1506 1507 1508 1509 1509 1510 1511 1512 1512 1512 1512 1513 1513 1512 1512 1512 1512 1511 1511 1511 1511 1510 1510 1510 1509 1508 1507 1507 1506 1506 1505 1504 1503 1502 1502 1501 1501
1507 1507 1507 1508 1509 1509 1510 1511 1511 1511 1512 1512 1512 1512 1512 1512 1512 1511 1511 1510 1510 1510 1509 1509 1509 1508 1507 1507 1506 1505 1504 1503 1503 1501 1500 1499 1499 1498
1508 1508 1509 1509 1510 1510 1511 1511 1511 1511 1512 1512 1512 1512 1512 1512 1512 1511 1511 1510 1510 1509 1509 1509 1508 1507 1506 1506 1505 1504 1503 1502 1501 1500 1498 1497 1496 1495
1510 1510 1510 1511 1511 1511 1511 1512 1512 1512 1512 1512 1513 1512 1512 1512 1512 1511 1511 1510 1510 1509 1509 1508 1507 1507 1506 1505 1504 1503 1502 1501 1500 1498 1497 1496 1495 1493
1513 1512 1512 1512 1513 1513 1513 1513 1513 1513 1513 1513 1513 1513 1512 1512 1512 1511 1511 1510 1510 1509 1508 1507 1506 1505 1505 1505 1504 1503 1502 1500 1499 1497 1495 1494 1493 1491
1515 1514 1515 1515 1515 1515 1514 1514 1514 1514 1513 1513 1513 1513 1512 1512 1512 1511 1511 1510 1509 1509 1508 1507 1506 1505 1504 1503 1503 1502 1501 1499 1497 1496 1494 1492 1491 1489
1517 1516 1516 1516 1516 1516 1515 1515 1515 1514 1514 1513 1513 1513 1512 1512 1512 1511 1511 1510 1509 1509 1508 1507 1506 1505 1504 1504 1503 1502 1500 1498 1496 1494 1493 1491 1489 1488
1519 1518 1518 1517 1517 1516 1516 1515 1515 1514 1513 1513 1513 1512 1512 1512 1512 1511 1511 1510 1509 1509 1508 1507 1506 1505 1504 1503 1502 1501 1499 1497 1495 1493 1491 1489 1487 1486
1520 1520 1519 1518 1517 1517 1516 1515 1515 1514 1513 1513 1512 1512 1512 1512 1512 1511 1511 1510 1509 1509 1508 1507 1506 1505 1503 1502 1501 1500 1499 1497 1495 1493 1491 1489 1487 1485
1522 1521 1520 1519 1518 1517 1516 1515 1514 1514 1513 1512 1512 1512 1512 1512 1511 1511 1511 1510 1509 1508 1507 1507 1506 1505 1504 1503 1501 1500 1499 1497 1495 1493 1492 1490 1488 1486